Location: Unspecified
(0.0000°N, 0.0000°E)
Time: 23:33:40
(UTC+00:00)

OTV 5 (USA 277) - Pass Details

Date: 16 January 2019
Orbit: 339 x 349 km, 54.5° (Epoch: 15 January)

Event Time Altitude Azimuth Distance (km) Brightness Sun altitude
Rises 18:54:04 0° 350° (N) 2,113 ? -10.3°
Reaches altitude 10° 18:56:26 10° 10° (N) 1,277 ? -10.9°
Enters shadow 18:58:13 18° 49° (NE) 924 ? -11.3°
